Weather Roundup
Issued by NWS

Home | Current Version | Previous Version | Text Only | Print | Product List | Glossary On
Versions: 1 2 3 4 5 6 7 8 9 10 11 12 13 14 15 16 17 18 19 20 21 22 23 24 25 26 27 28 29 30 31 32 33 34 35 36 37 38 39 40 41 42 43 44 45 46 47 48 49 50
000
NZUS93 KARX 281510
HRRWXR

CURRENT HOURLY OBSERVATIONS ACROSS
MUCH OF THE UPPER MISSISSIPPI VALLEY
NATIONAL WEATHER SERVICE LA CROSSE WI
1000 AM CDT TUE APR 28 2015


...SOUTHEAST MINNESOTA...


CITY           SKY/WX    TMP DP  RH WIND       PRES   REMARKS
ROCHESTER      SUNNY     62  29  28 W3        30.15
ROCHESTER/MAYO FAIR      60  32  34 CALM      30.14
WINONA         SUNNY     55  37  50 CALM      30.16F
AUSTIN         SUNNY     61  34  36 CALM      30.15F
ALBERT LEA     MOSUNNY   64  28  25 N5        30.15F
DODGE CENTER   SUNNY     63  34  34 CALM      30.14F
PRESTON        SUNNY     58  33  39 W3        30.16F
OWATONNA       MOSUNNY   61  28  29 NW5       30.15F
FARIBAULT      MOSUNNY   63  32  31 W7        30.15F
$$

...ELSEWHERE IN MINNESOTA...


CITY           SKY/WX    TMP DP  RH WIND       PRES   REMARKS
MINNEAPOLIS    PTSUNNY   56  35  45 N12       30.16
INTNL FALLS    MOSUNNY   48  39  71 NW9       30.21F
DULUTH         PTSUNNY   57  35  43 N10       30.15
RED WING       SUNNY     61  36  39 CALM      30.13F
REDWOOD FALLS  PTSUNNY   56  43  61 NW8       30.19
MANKATO        PTSUNNY   55  34  44 N7        30.17F
WORTHINGTON    PTSUNNY   55  41  58 N14       30.20F
FAIRMONT       MOSUNNY   57  37  47 NW9       30.17F
$$

...SOUTHWEST WISCONSIN...


CITY           SKY/WX    TMP DP  RH WIND       PRES   REMARKS
LA CROSSE      SUNNY     55  37  50 S3        30.16
PRAIRIE DU CHI SUNNY     54  39  56 CALM      30.15F
BOSCOBEL       SUNNY     56  37  49 VRB3      30.16
LONE ROCK      SUNNY     53  36  52 SE3       30.16
PLATTEVILLE    SUNNY     54  39  57 E6        30.15S
FORT MC COY    SUNNY     55  35  45 NW3       30.16F
CAMP DOUGLAS   MOSUNNY   54  37  54 S2        30.16
VIROQUA        FAIR      55  36  48 NE3       30.15F
WIS DELLS      NOT AVBL
$$

...ELSEWHERE IN WISCONSIN...


CITY           SKY/WX    TMP DP  RH WIND       PRES   REMARKS
MILWAUKEE      MOSUNNY   50  36  58 NE9       30.16
MADISON        MOSUNNY   53  35  50 VRB3      30.16
GREEN BAY      SUNNY     53  36  52 N6        30.18
EAU CLAIRE     SUNNY     56  33  42 CALM      30.15
BLACK RVR FLS  FAIR      54  34  47 CALM      30.16F
MEDFORD        SUNNY     51  37  59 SW3       30.16F
WAUSAU         SUNNY     50  36  58 VRB3      30.15
WIS RAPIDS     SUNNY     53  33  46 N5        30.18
MARSHFIELD     SUNNY     53  35  50 CALM      30.16
RICE LAKE      SUNNY     56  32  40 SE3       30.16F
$$

...NORTHEAST IOWA...


CITY           SKY/WX    TMP DP  RH WIND       PRES   REMARKS
DECORAH        SUNNY     55  37  50 VRB3      30.14F
MASON CITY     SUNNY     63  35  35 N6        30.18
CHARLES CITY   SUNNY     59  34  38 N7        30.16F
OELWEIN        SUNNY     59  37  44 NE6       30.15F
$$

...ELSEWHERE IN IOWA...


CITY           SKY/WX    TMP DP  RH WIND       PRES   REMARKS
DES MOINES     MOSUNNY   63  38  39 NW8       30.18
IOWA CITY      SUNNY     61  38  42 NW10      30.14
FORT DODGE     SUNNY     63  36  36 NW7       30.19F
$$

...NORTHERN ILLINOIS...


CITY           SKY/WX    TMP DP  RH WIND       PRES   REMARKS
CHICAGO-OHARE  SUNNY     50  34  54 NE7       30.15
CHICAGO-MIDWAY SUNNY     54  37  52 VRB3      30.16
MOLINE         SUNNY     58  39  49 CALM      30.13
ROCKFORD       MOSUNNY   55  35  47 CALM      30.18
PEORIA         SUNNY     56  37  49 CALM      30.15
$$

NOTE: "FAIR" INDICATES FEW OR NO CLOUDS BELOW 12,000 FEET WITH NO
SIGNIFICANT WEATHER AND/OR OBSTRUCTIONS TO VISIBILITY. WIND
SPEEDS ARE IN MILES-PER-HOUR.



USA.gov is the U.S. government's official web portal to all federal, state and local government web resources and services.